Time,TemperatureF,DewpointF,PressureIn,WindDirection,WindDirectionDegrees,WindSpeedMPH,WindSpeedGustMPH,Humidity,HourlyPrecipIn,Conditions,Clouds,dailyrainin,SoftwareType,DateUTC
2013-01-10 00:02:00,29.0,19.0,30.12,North,0,0.0,3.0,65,0.00,,,0.00,,2013-01-10 07:02:00,
2013-01-10 00:11:00,29.0,19.0,30.12,North,0,0.0,3.0,65,0.00,,,0.00,,2013-01-10 07:11:00,
2013-01-10 00:22:00,29.0,19.0,30.11,North,0,0.0,3.0,65,0.00,,,0.00,,2013-01-10 07:22:00,
2013-01-10 00:32:00,29.0,19.0,30.11,North,0,0.0,3.0,65,0.00,,,0.00,,2013-01-10 07:32:00,
2013-01-10 00:42:00,29.0,19.0,30.11,North,0,0.0,3.0,65,0.00,,,0.00,,2013-01-10 07:42:00,
2013-01-10 00:52:00,28.0,18.0,30.10,North,0,0.0,3.0,66,0.00,,,0.00,,2013-01-10 07:52:00,
2013-01-10 01:01:00,28.0,18.0,30.09,SW,225,1.0,5.0,66,0.00,,,0.00,,2013-01-10 08:01:00,
2013-01-10 01:11:00,28.0,18.0,30.09,SW,225,1.0,5.0,66,0.00,,,0.00,,2013-01-10 08:11:00,
2013-01-10 01:21:00,30.0,19.0,30.06,North,0,0.0,9.0,63,0.00,,,0.00,,2013-01-10 08:21:00,
2013-01-10 01:32:00,39.0,16.0,30.06,SW,215,5.0,14.0,39,0.00,,,0.00,,2013-01-10 08:32:00,
2013-01-10 01:52:00,40.0,16.0,30.06,SW,219,9.0,13.0,37,0.00,,,0.00,,2013-01-10 08:52:00,
2013-01-10 02:02:00,40.0,16.0,30.05,SSW,211,6.0,14.0,37,0.00,,,0.00,,2013-01-10 09:02:00,
2013-01-10 02:22:00,41.0,15.0,30.03,SSW,205,6.0,16.0,34,0.00,,,0.00,,2013-01-10 09:22:00,
2013-01-10 02:32:00,41.0,15.0,30.03,SSW,211,8.0,15.0,34,0.00,,,0.00,,2013-01-10 09:32:00,
2013-01-10 02:52:00,40.0,15.0,30.02,SW,220,4.0,12.0,35,0.00,,,0.00,,2013-01-10 09:52:00,
2013-01-10 03:02:00,40.0,15.0,30.02,SW,230,7.0,17.0,35,0.00,,,0.00,,2013-01-10 10:02:00,
2013-01-10 03:22:00,40.0,15.0,30.01,SW,227,8.0,16.0,36,0.00,,,0.00,,2013-01-10 10:22:00,
2013-01-10 03:32:00,41.0,16.0,30.01,SW,224,6.0,18.0,36,0.00,,,0.00,,2013-01-10 10:32:00,
2013-01-10 03:52:00,41.0,15.0,30.01,SW,216,10.0,19.0,35,0.00,,,0.00,,2013-01-10 10:52:00,
2013-01-10 04:02:00,41.0,16.0,30.00,SSW,213,5.0,19.0,36,0.00,,,0.00,,2013-01-10 11:02:00,
2013-01-10 04:22:00,40.0,15.0,29.99,WSW,243,7.0,15.0,36,0.00,,,0.00,,2013-01-10 11:22:00,
2013-01-10 04:32:00,40.0,15.0,29.98,SW,230,8.0,18.0,35,0.00,,,0.00,,2013-01-10 11:32:00,
2013-01-10 04:52:00,39.0,14.0,29.98,SW,230,8.0,16.0,36,0.00,,,0.00,,2013-01-10 11:52:00,
2013-01-10 05:02:00,39.0,14.0,29.96,SW,223,4.0,12.0,36,0.00,,,0.00,,2013-01-10 12:02:00,
2013-01-10 05:22:00,39.0,14.0,29.96,SW,221,5.0,12.0,36,0.00,,,0.00,,2013-01-10 12:22:00,
2013-01-10 05:32:00,39.0,15.0,29.96,SSW,210,5.0,11.0,37,0.00,,,0.00,,2013-01-10 12:32:00,
2013-01-10 06:02:00,39.0,15.0,29.94,SW,218,6.0,11.0,37,0.00,,,0.00,,2013-01-10 13:02:00,
2013-01-10 06:11:00,39.0,15.0,29.94,SW,218,6.0,11.0,37,0.00,,,0.00,,2013-01-10 13:11:00,
2013-01-10 06:22:00,38.0,14.0,29.94,SW,223,4.0,14.0,37,0.00,,,0.00,,2013-01-10 13:22:00,
2013-01-10 06:32:00,38.0,14.0,29.94,SW,223,4.0,14.0,37,0.00,,,0.00,,2013-01-10 13:32:00,
2013-01-10 06:42:00,38.0,14.0,29.94,SW,223,4.0,14.0,37,0.00,,,0.00,,2013-01-10 13:42:00,
2013-01-10 06:52:00,38.0,15.0,29.95,SW,221,6.0,11.0,38,0.00,,,0.00,,2013-01-10 13:52:00,
2013-01-10 07:02:00,37.0,14.0,29.95,SSW,208,8.0,14.0,38,0.00,,,0.00,,2013-01-10 14:02:00,
2013-01-10 07:12:00,37.0,14.0,29.95,SSW,208,8.0,14.0,38,0.00,,,0.00,,2013-01-10 14:12:00,
2013-01-10 07:22:00,37.0,14.0,29.94,SW,230,7.0,14.0,38,0.00,,,0.00,,2013-01-10 14:22:00,
2013-01-10 07:32:00,37.0,14.0,29.93,SW,236,7.0,17.0,39,0.00,,,0.00,,2013-01-10 14:32:00,
2013-01-10 07:42:00,37.0,14.0,29.93,SW,236,7.0,17.0,39,0.00,,,0.00,,2013-01-10 14:42:00,
2013-01-10 07:53:00,37.0,14.0,29.93,SW,236,7.0,17.0,39,0.00,,,0.00,,2013-01-10 14:53:00,
2013-01-10 08:02:00,37.0,14.0,29.92,SSW,213,7.0,15.0,39,0.00,,,0.00,,2013-01-10 15:02:00,
2013-01-10 08:12:00,37.0,14.0,29.92,SSW,213,7.0,15.0,39,0.00,,,0.00,,2013-01-10 15:12:00,
2013-01-10 08:22:00,37.0,14.0,29.92,SW,221,6.0,15.0,39,0.00,,,0.00,,2013-01-10 15:22:00,
2013-01-10 08:32:00,37.0,14.0,29.92,SW,221,6.0,15.0,39,0.00,,,0.00,,2013-01-10 15:32:00,
2013-01-10 08:42:00,37.0,14.0,29.92,SW,221,6.0,15.0,39,0.00,,,0.00,,2013-01-10 15:42:00,
2013-01-10 08:52:00,37.0,15.0,29.91,SW,226,7.0,16.0,40,0.00,,,0.00,,2013-01-10 15:52:00,
2013-01-10 09:02:00,37.0,15.0,29.91,SW,226,7.0,16.0,40,0.00,,,0.00,,2013-01-10 16:02:00,
2013-01-10 09:12:00,37.0,15.0,29.91,SW,226,7.0,16.0,40,0.00,,,0.00,,2013-01-10 16:12:00,
2013-01-10 09:22:00,37.0,15.0,29.93,SW,235,10.0,20.0,40,0.00,,,0.00,,2013-01-10 16:22:00,
2013-01-10 09:32:00,38.0,15.0,29.93,SW,234,11.0,22.0,39,0.00,,,0.00,,2013-01-10 16:32:00,
2013-01-10 09:42:00,38.0,15.0,29.93,SW,234,11.0,22.0,39,0.00,,,0.00,,2013-01-10 16:42:00,
2013-01-10 09:52:00,39.0,16.0,29.91,SW,230,8.0,24.0,39,0.00,,,0.00,,2013-01-10 16:52:00,
2013-01-10 10:02:00,40.0,16.0,29.91,SW,225,11.0,21.0,38,0.00,,,0.00,,2013-01-10 17:02:00,
2013-01-10 10:11:00,40.0,16.0,29.91,SW,225,11.0,21.0,38,0.00,,,0.00,,2013-01-10 17:11:00,
2013-01-10 10:22:00,40.0,16.0,29.91,SW,225,11.0,21.0,38,0.00,,,0.00,,2013-01-10 17:22:00,
2013-01-10 10:33:00,40.0,17.0,29.91,SW,222,11.0,25.0,39,0.00,,,0.00,,2013-01-10 17:33:00,
2013-01-10 10:42:00,40.0,17.0,29.91,SW,222,11.0,25.0,39,0.00,,,0.00,,2013-01-10 17:42:00,
2013-01-10 10:53:00,40.0,17.0,29.91,SW,222,11.0,25.0,39,0.00,,,0.00,,2013-01-10 17:53:00,
2013-01-10 11:03:00,40.0,17.0,29.91,SW,222,11.0,25.0,39,0.00,,,0.00,,2013-01-10 18:03:00,
2013-01-10 11:12:00,40.0,17.0,29.91,SW,222,11.0,25.0,39,0.00,,,0.00,,2013-01-10 18:12:00,
2013-01-10 11:33:00,41.0,17.0,29.87,SW,228,17.0,30.0,38,0.00,,,0.00,,2013-01-10 18:33:00,
2013-01-10 11:43:00,41.0,19.0,29.85,SW,229,11.0,27.0,40,0.00,,,0.00,,2013-01-10 18:43:00,
2013-01-10 11:53:00,41.0,19.0,29.85,SW,229,11.0,27.0,40,0.00,,,0.00,,2013-01-10 18:53:00,
2013-01-10 12:02:00,42.0,19.0,29.84,SW,220,10.0,25.0,40,0.00,,,0.00,,2013-01-10 19:02:00,
2013-01-10 12:12:00,42.0,20.0,29.82,SW,224,15.0,26.0,41,0.00,,,0.00,,2013-01-10 19:12:00,
2013-01-10 12:22:00,42.0,20.0,29.82,SW,224,15.0,26.0,41,0.00,,,0.00,,2013-01-10 19:22:00,
2013-01-10 12:32:00,42.0,20.0,29.82,SW,230,15.0,27.0,41,0.00,,,0.00,,2013-01-10 19:32:00,
2013-01-10 12:43:00,42.0,20.0,29.82,SW,230,15.0,27.0,41,0.00,,,0.00,,2013-01-10 19:43:00,
2013-01-10 12:53:00,42.0,20.0,29.82,SW,230,15.0,27.0,41,0.00,,,0.00,,2013-01-10 19:53:00,
2013-01-10 13:02:00,42.0,21.0,29.80,SW,222,16.0,31.0,42,0.00,,,0.00,,2013-01-10 20:02:00,
2013-01-10 13:12:00,42.0,21.0,29.80,SW,222,16.0,31.0,42,0.00,,,0.00,,2013-01-10 20:12:00,
2013-01-10 13:22:00,42.0,21.0,29.80,SW,222,16.0,31.0,42,0.00,,,0.00,,2013-01-10 20:22:00,
2013-01-10 13:32:00,42.0,21.0,29.78,SW,219,13.0,29.0,43,0.00,,,0.00,,2013-01-10 20:32:00,
2013-01-10 13:43:00,42.0,21.0,29.78,SW,219,13.0,29.0,43,0.00,,,0.00,,2013-01-10 20:43:00,
2013-01-10 13:53:00,41.0,20.0,29.77,SW,229,14.0,35.0,43,0.00,,,0.00,,2013-01-10 20:53:00,
2013-01-10 14:02:00,40.0,20.0,29.77,SW,218,16.0,28.0,44,0.00,,,0.00,,2013-01-10 21:02:00,
2013-01-10 14:12:00,40.0,20.0,29.77,SW,215,10.0,22.0,45,0.00,,,0.00,,2013-01-10 21:12:00,
2013-01-10 14:22:00,40.0,20.0,29.77,SW,215,10.0,22.0,45,0.00,,,0.00,,2013-01-10 21:22:00,
2013-01-10 14:32:00,39.0,20.0,29.78,SW,215,14.0,30.0,46,0.00,,,0.00,,2013-01-10 21:32:00,
2013-01-10 14:42:00,39.0,20.0,29.78,SW,215,14.0,30.0,46,0.00,,,0.00,,2013-01-10 21:42:00,
2013-01-10 14:53:00,39.0,20.0,29.78,SW,215,14.0,30.0,46,0.00,,,0.00,,2013-01-10 21:53:00,
2013-01-10 15:02:00,38.0,22.0,29.78,SSW,213,14.0,25.0,52,0.00,,,0.00,,2013-01-10 22:02:00,
2013-01-10 15:12:00,38.0,21.0,29.77,SSW,212,13.0,25.0,49,0.00,,,0.00,,2013-01-10 22:12:00,
2013-01-10 15:24:00,38.0,21.0,29.77,SSW,212,13.0,25.0,49,0.00,,,0.00,,2013-01-10 22:24:00,
2013-01-10 15:32:00,38.0,22.0,29.77,SSW,212,17.0,36.0,52,0.00,,,0.00,,2013-01-10 22:32:00,
2013-01-10 15:42:00,38.0,22.0,29.77,SSW,212,17.0,36.0,52,0.00,,,0.00,,2013-01-10 22:42:00,
2013-01-10 16:02:00,35.0,25.0,29.75,SSW,207,16.0,35.0,67,0.00,,,0.00,,2013-01-10 23:02:00,
2013-01-10 16:12:00,36.0,23.0,29.74,SSW,208,8.0,25.0,59,0.00,,,0.00,,2013-01-10 23:12:00,
2013-01-10 16:22:00,36.0,23.0,29.74,SSW,208,8.0,25.0,59,0.00,,,0.00,,2013-01-10 23:22:00,
2013-01-10 16:32:00,37.0,21.0,29.72,SSW,204,9.0,17.0,52,0.00,,,0.00,,2013-01-10 23:32:00,
2013-01-10 16:42:00,37.0,21.0,29.72,SSW,204,9.0,17.0,52,0.00,,,0.00,,2013-01-10 23:42:00,
2013-01-10 16:52:00,37.0,21.0,29.72,SSW,204,9.0,17.0,52,0.00,,,0.00,,2013-01-10 23:52:00,
2013-01-10 17:02:00,38.0,20.0,29.74,SW,216,12.0,25.0,47,0.00,,,0.00,,2013-01-11 00:02:00,
2013-01-10 17:12:00,37.0,19.0,29.73,SW,219,14.0,24.0,48,0.00,,,0.00,,2013-01-11 00:12:00,
2013-01-10 17:23:00,37.0,19.0,29.73,SW,219,14.0,24.0,48,0.00,,,0.00,,2013-01-11 00:23:00,
2013-01-10 17:32:00,37.0,20.0,29.74,SSW,213,12.0,24.0,50,0.00,,,0.00,,2013-01-11 00:32:00,
2013-01-10 17:42:00,37.0,20.0,29.74,SSW,213,12.0,24.0,50,0.00,,,0.00,,2013-01-11 00:42:00,
2013-01-10 17:52:00,37.0,20.0,29.74,SSW,213,12.0,24.0,50,0.00,,,0.00,,2013-01-11 00:52:00,
2013-01-10 18:02:00,36.0,20.0,29.71,SW,219,10.0,27.0,51,0.00,,,0.00,,2013-01-11 01:02:00,
2013-01-10 18:12:00,36.0,20.0,29.70,SSW,197,11.0,24.0,51,0.00,,,0.00,,2013-01-11 01:12:00,
2013-01-10 18:22:00,36.0,20.0,29.70,SSW,197,11.0,24.0,51,0.00,,,0.00,,2013-01-11 01:22:00,
2013-01-10 18:33:00,36.0,20.0,29.69,SSW,213,10.0,21.0,52,0.00,,,0.00,,2013-01-11 01:33:00,
2013-01-10 18:42:00,36.0,20.0,29.69,SSW,213,10.0,21.0,52,0.00,,,0.00,,2013-01-11 01:42:00,
2013-01-10 18:52:00,35.0,20.0,29.68,SSW,208,8.0,23.0,54,0.00,,,0.00,,2013-01-11 01:52:00,
2013-01-10 19:02:00,35.0,20.0,29.68,SSW,208,8.0,23.0,54,0.00,,,0.00,,2013-01-11 02:02:00,
2013-01-10 19:12:00,35.0,20.0,29.68,SSW,208,8.0,23.0,54,0.00,,,0.00,,2013-01-11 02:12:00,
2013-01-10 19:22:00,35.0,20.0,29.68,SSW,208,8.0,23.0,54,0.00,,,0.00,,2013-01-11 02:22:00,
2013-01-10 19:32:00,35.0,23.0,29.68,SSW,204,9.0,24.0,62,0.00,,,0.00,,2013-01-11 02:32:00,
2013-01-10 19:43:00,35.0,23.0,29.68,SSW,204,9.0,24.0,62,0.00,,,0.00,,2013-01-11 02:43:00,
2013-01-10 19:54:00,34.0,23.0,29.67,SSW,209,13.0,25.0,64,0.00,,,0.00,,2013-01-11 02:54:00,
2013-01-10 20:02:00,33.0,25.0,29.67,SSW,196,8.0,21.0,71,0.00,,,0.00,,2013-01-11 03:02:00,
2013-01-10 20:11:00,33.0,25.0,29.67,SSW,196,8.0,21.0,71,0.00,,,0.00,,2013-01-11 03:11:00,
2013-01-10 20:22:00,33.0,25.0,29.67,SSW,196,8.0,21.0,71,0.00,,,0.00,,2013-01-11 03:22:00,
2013-01-10 20:32:00,32.0,26.0,29.67,SSW,192,7.0,19.0,77,0.00,,,0.00,,2013-01-11 03:32:00,
2013-01-10 20:42:00,32.0,26.0,29.67,SSW,192,7.0,19.0,77,0.00,,,0.00,,2013-01-11 03:42:00,
2013-01-10 20:53:00,33.0,26.0,29.66,SSW,199,8.0,22.0,76,0.00,,,0.00,,2013-01-11 03:53:00,
2013-01-10 21:02:00,33.0,27.0,29.65,SSW,197,7.0,26.0,78,0.00,,,0.00,,2013-01-11 04:02:00,
2013-01-10 21:11:00,33.0,27.0,29.65,SSW,197,7.0,26.0,78,0.00,,,0.00,,2013-01-11 04:11:00,
2013-01-10 21:22:00,33.0,27.0,29.64,SSW,209,16.0,27.0,77,0.00,,,0.00,,2013-01-11 04:22:00,
2013-01-10 21:32:00,33.0,26.0,29.64,SSW,205,10.0,35.0,76,0.00,,,0.00,,2013-01-11 04:32:00,
2013-01-10 21:42:00,33.0,26.0,29.64,SSW,205,10.0,35.0,76,0.00,,,0.00,,2013-01-11 04:42:00,
2013-01-10 21:52:00,33.0,25.0,29.62,SSW,212,14.0,30.0,72,0.00,,,0.00,,2013-01-11 04:52:00,
2013-01-10 22:03:00,33.0,24.0,29.62,SSW,213,11.0,23.0,69,0.00,,,0.00,,2013-01-11 05:03:00,
2013-01-10 22:12:00,33.0,24.0,29.62,SSW,213,11.0,23.0,69,0.00,,,0.00,,2013-01-11 05:12:00,
2013-01-10 22:22:00,33.0,24.0,29.62,SSW,213,11.0,23.0,69,0.00,,,0.00,,2013-01-11 05:22:00,
2013-01-10 22:33:00,29.0,26.0,29.63,SW,216,8.0,27.0,90,0.00,,,0.00,,2013-01-11 05:33:00,
2013-01-10 22:42:00,29.0,26.0,29.63,SW,216,8.0,27.0,90,0.00,,,0.00,,2013-01-11 05:42:00,
2013-01-10 22:52:00,29.0,26.0,29.64,SW,224,7.0,18.0,89,0.00,,,0.00,,2013-01-11 05:52:00,
2013-01-10 23:02:00,28.0,25.0,29.65,WSW,246,14.0,26.0,87,0.00,,,0.00,,2013-01-11 06:02:00,
2013-01-10 23:11:00,28.0,25.0,29.65,WSW,246,14.0,26.0,87,0.00,,,0.00,,2013-01-11 06:11:00,
2013-01-10 23:22:00,28.0,25.0,29.65,WSW,246,14.0,26.0,87,0.00,,,0.00,,2013-01-11 06:22:00,
2013-01-10 23:32:00,26.0,22.0,29.66,SW,228,7.0,21.0,84,0.00,,,0.00,,2013-01-11 06:32:00,
2013-01-10 23:42:00,26.0,22.0,29.66,SW,228,7.0,21.0,84,0.00,,,0.00,,2013-01-11 06:42:00,
2013-01-10 23:52:00,26.0,22.0,29.66,SW,230,4.0,11.0,85,0.00,,,0.00,,2013-01-11 06:52:00,